686  
ASUS42 KCHS 150627  
RWRCHS  
 
REGIONAL WEATHER ROUNDUP  
NATIONAL WEATHER SERVICE CHARLESTON SC  
200 AM EDT SUN SEP 15 2019  
 
NOTE: "FAIR" INDICATES FEW OR NO CLOUDS BELOW 12,000 FEET WITH NO  
SIGNIFICANT WEATHER AND/OR S TO VISIBILITY
.  
 
NOT ALL STATIONS ARE QUALITY CONTROLLED. USE DATA WITH CAUTION,  
ESPECIALLY DEWPOINT OBSERVATIONS.  
 
SCZ027-030-031-034>040-042>050-150700-   
..SOUTHEAST SOUTH CAROLINA
 
 
 
CITY SKY/WX TMP DP RH WIND PRES REMARKS
 
N CHARLESTON FAIR 74 72 93 NE8 30.10F  
6HR MIN TEMP: 74; 6HR MAX TEMP: 77;  
 
WATERFRONT PRK N/A 78 76 94 NE7 29.94F  
MOUNT PLEASANT FAIR 75 75 100 CALM 30.09F  
JOHNS ISLAND FAIR 77 75 94 N5 30.09S  
PINOPOLIS N/A 79 75 89 E7 30.05F  
MONCKS CORNER FAIR 73 73 100 NE5 30.11F  
SUMMERVILLE FAIR 73 73 100 CALM 30.10S  
BEAUFORT MCAS FAIR 75 74 96 NE5 30.09F  
6HR MIN TEMP: 75; 6HR MAX TEMP: 76;  
 
BEAUFORT ARPT FAIR 75 73 94 NE5 30.09S  
HILTON HEAD IS FAIR 77 75 94 NE8 30.09S  
WALTERBORO FAIR 73 72 94 NE6 30.11F  
ALLENDALE FAIR 73 73 100 CALM 30.11S  
   
..SOUTHERN MIDLANDS AND PEE DEE
 
 
 
CITY SKY/WX TMP DP RH WIND PRES REMARKS
 
GEORGETOWN FAIR 72 72 100 NE3 30.12F  
KINGSTREE FAIR 72 70 94 CALM 30.13F  
ORANGEBURG FAIR 72 69 90 NE3 30.13F  
6HR MIN TEMP: 72; 6HR MAX TEMP: 81;  
 
BARNWELL N/A 73 72 94 CALM 30.13S  
AIKEN FAIR 70 70 100 CALM 30.18S  
MANNING FAIR 70 70 100 CALM 30.13F  
COLUMBIA FAIR 74 70 87 CALM 30.14S  
6HR MIN TEMP: 73; 6HR MAX TEMP: 83;  
 
SUMTER FAIR 72 69 90 NE5 30.14F  
6HR MIN TEMP: 71; 6HR MAX TEMP: 78;  
 
FLORENCE FAIR 73 70 90 CALM 30.15S  
6HR MIN TEMP: 72; 6HR MAX TEMP: 80;  
 
MYRTLE BEACH FAIR 76 73 91 N7 30.13S  
N MYRTLE BEACH FAIR 75 73 93 NE5 30.12F  
6HR MIN TEMP: 74; 6HR MAX TEMP: 80;  
 

 
 
GAZ063-065-086>088-099>101-113>116-118-119-134>141-150-150700-   
..SOUTHEAST GEORGIA
 
 
 
CITY SKY/WX TMP DP RH WIND PRES REMARKS
 
SAVANNAH ARPT FAIR 74 74 100 NE5 30.09F  
6HR MIN TEMP: 74; 6HR MAX TEMP: 80;  
 
HUNTER AAF FAIR 76 73 91 NE6 30.06F  
6HR MIN TEMP: 76; 6HR MAX TEMP: 81;  
 
FORT STEWART FAIR 73 72 96 NE5 30.06F  
6HR MIN TEMP: 73; 6HR MAX TEMP: 78;  
 
STATESBORO FAIR 72 69 92 CALM 30.11S  
SYLVANIA N/A 73 72 94 NE3 30.13R  
CLAXTON FAIR 75 73 93 NE3 30.10S  
MILLEN FAIR 73 71 91 N3 30.13R  
   
..CSRA, CENTRAL AND FAR SOUTHEAST GEORGIA
 
 
 
CITY SKY/WX TMP DP RH WIND PRES REMARKS
 
THOMSON FAIR 70 69 98 CALM 30.15F  
AUGUSTA-BUSH FAIR 73 70 90 CALM 30.13F  
6HR MIN TEMP: 73; 6HR MAX TEMP: 82;  
 
AUGUSTA-DANIEL FAIR 76 69 79 N7 30.15S  
SWAINSBORO FAIR 73 72 94 E3 30.13S  
VIDALIA FAIR 73 70 88 N5 30.11S  
EASTMAN FAIR 73 70 91 CALM 30.14S  
HAZLEHURST FAIR 75 70 83 CALM 30.09S  
ALMA FAIR 73 71 93 VRB3 30.08F  
6HR MIN TEMP: 73; 6HR MAX TEMP: 78;  
 
WAYCROSS MOCLDY 74 69 84 NE5 30.07F  
JESUP CLOUDY 75 72 88 N5 30.07F  
BAXLEY FAIR 72 72 100 NE6 30.09S  
BRUNSWICK CLOUDY 79 76 90 NE9 30.05F  
SAINT SIMONS MOCLDY 82 74 76 NE12 30.04F  
6HR MIN TEMP: 82; 6HR MAX TEMP: 83;  
 

 
 
SCZ027-028-034-036>038-045-046-048>050-GAZ119-141-150700-   
..LAKE AND SUPPLEMENTAL COASTAL OBSERVATIONS
 
 
 
STATION/POSITION TIME TEMP WIND PRES WAVE SWELL
 
AIR SEA DIR/SP/G HT/PER HT/PER/DIR  
(UTC) (F) (DEG/KT/KT) (MB) (FT/S) (FT/S/D)  
WINYAH BAY 0545 80 60/ 6 1019.0S  
LAKE MURRAY 0550 76 10/ 2/ 4 1020.3S  
CHRLSTN HARBOR 0542 83 10/ 8/ 10 1019.2F  
ACE BASIN NERRS 0530 76 20/ 2 1019.0S  
FORT PULASKI 0542 83 50/ 8/ 10 1019.1F  
SAPELO ISLAND 0600 79 50/ 8 1018.0  
 

 
 
ANZ835-935-AMZ111-154-330-350-352-354-370-450-454-472-150700-   
..C-MAN AND BUOY OBSERVATIONS
 
 
 
STATION/POSITION TIME TEMP WIND PRES WAVE SWELL
 
AIR SEA DIR/SP/G HT/PER HT/PER/DIR  
(UTC) (F) (DEG/KT/KT) (MB) (FT/S) (FT/S/D)  
BUOY 41004 0610 82 60/ 16/ 19 1017.9  
BUOY 41008 0550 82 83 60/ 17/ 19 1017.1F 6/ 8 3/110/ 8  
FOLLY BEACH CMAN 0600 81 60/ 13/ 16 1019.4F  
CAPERS NEARSHORE 0608 81 83 80/ 14/ 19 1019.5F  
FRIPP NEARSHORE 0608 81 83 80/ 19/ 25 1019.1F  
 
 
STATION/POSITION TIME TEMP WIND PRES WAVE SWELL
 
AIR SEA DIR/SP/G HT/PER HT/PER/DIR  
(UTC) (F) (DEG/KT/KT) (MB) (FT/S) (FT/S/D)  
5E ST. MARYS GA 0600 83 N/A 6/ 8 2/120/11  
FRYING PAN BUOY 0610 81 83 90/ 10/ 12 1019.1  
BUOY 41025 0610 79 77 140/ 8/ 10 1020.0  
CAPE LOOKOUT NC 0600 80 130/ 9/ 10 1020.1F  
BUOY 41002 0610 83 100/ 14/ 17 1018.2  
BUOY 41010 0600 81 82 1010.4  
ST AUGUSTINE FL 0600 81 83 50/ 17/ 21 1015.6F  
 

 
 
 
CLICK HERE TO GO TO PREVIOUS BULLETINS.

The Nexlab SC Page
The Nexlab GA Page Main Text Page